STARLINK-1684 (46539 NORAD) Tracking and Keplerian Element Data

This shows tracking and keplerian element data for the satellite.

Feedback or suggestion? Click here.




ElementValue
Catalog46539
NameSTARLINK-1684
Epoch Orbit409
Epoch Day303.25001157
Epoch Year2020
RAAN330.0948
Inclination52.9991
Eccentricity0.0001239
Argument of Perigee66.0809
Mean Anonmoly172.2942
Mean Motion15.62751873
Decay Rate-4.7E-07
L11 46539U 20070H 20303.25001157 -.00000047 00000-0 53265-5 0 9993
L22 46539 52.9991 330.0948 0001239 66.0809 172.2942 15.62751873 4090

Live tracking and technical data element details for STARLINK-1684 (NORAD 46539). STARLINK-1684 can be tracked NOW for your location showing map with azimuth and elevation plus other details from your city location.

Track the satellite on the map from your city or location and see movement details for azimuth, elevation, latitude, longitude, range, height, and movement on the map or in text.







IsCatalogInMostPopularTable: catalog: 46539, numindb: 3
Update: records affected: 1



GetName: 46539 STARLINK-1684

Hit Count: updated at: Fri, 30 Oct 2020 01:10:17 GMT